Location: Butte
(46.0040°N, 112.5340°W)
Time: 06:55:35
(UTC-07:00)

Daily predictions for brighter satellites

Satellite Brightness Start Highest point End
(mag) Time Altitude Azimuth Time Altitude Azimuth Time Altitude Azimuth
Cosmos 1763 Rocket 4.5 17:21:37 10° N 17:25:58 25° NE 17:30:15 10° ESE
Cosmos 2082 Rocket 3.8 17:23:13 10° N 17:26:30 15° NE 17:29:45 10° ENE
AQUARIUS 4.4 17:25:18 10° SE 17:29:37 47° ENE 17:33:56 10° N
EO 1 Delta rocket 4.2 17:25:24 10° S 17:30:00 72° W 17:34:55 10° NNW
COSMOS 2455 3.9 17:25:49 10° SSE 17:30:37 26° ESE 17:35:27 10° NE
Cosmos 1459 Rocket 4.1 17:25:39 10° S 17:32:01 87° E 17:38:23 10° N
IDEFIX/ARIANE 42P 3.8 17:28:35 10° S 17:33:39 49° W 17:38:43 10° NNW
Cosmos 1869 3.9 17:31:12 10° SSW 17:35:03 59° W 17:38:58 10° N
Cosmos 371 Rocket 3.2 17:30:58 10° NNW 17:35:47 67° ENE 17:40:33 10° SSE
CZ-4C R/B 4.0 17:31:00 10° NNW 17:35:50 21° NNE 17:41:07 10° ENE
Cosmos 2100 Rocket 4.2 17:32:24 10° SSW 17:38:36 80° W 17:44:57 10° N
CSL-04 Rocket 3.6 17:35:23 10° SSE 17:40:39 82° ENE 17:46:01 10° NNW
CZ-4 R/B 1.5 17:39:17 10° SE 17:43:01 46° ENE 17:46:43 10° N
SJ-7 4.4 17:40:03 10° SSE 17:44:14 76° ENE 17:48:23 10° N
Cosmos 1850 Rocket 4.0 17:39:03 10° SSW 17:44:14 80° ESE 17:49:27 10° NNE
Cosmos 2208 Rocket 4.0 17:39:23 10° NNW 17:44:36 87° ENE 17:49:51 10° SSE
Cosmos 2242 Rocket 3.9 17:40:51 10° SSE 17:45:13 46° E 17:49:35 10° NNE
Cosmos 1825 4.0 17:41:48 10° NNW 17:45:18 35° W 17:48:46 10° SSW
Cosmos 2233 Rocket 4.5 17:40:45 10° SSE 17:46:25 37° E 17:52:03 10° NNE
Cosmos 1340 2.9 17:43:00 10° S 17:46:38 47° E 17:50:17 10° NNE
Ariane Rocket 3.0 17:42:06 10° SSE 17:47:11 83° ENE 17:52:18 10° NNW
Cosmos 1802 Rocket 4.1 17:43:29 10° S 17:49:40 83° W 17:55:51 10° N
Cosmos 1908 Rocket 4.5 17:47:13 10° NNE 17:50:53 25° ENE 17:54:30 10° SE
COSMOS 2406 3.2 17:46:46 10° NNW 17:52:34 81° ENE 17:58:17 10° SSE
ATLAS 3B R/B 4.0 17:48:03 10° W 17:54:37 36° NW 18:00:57 10° NNE
Cosmos 1933 3.3 17:51:41 10° S 17:55:42 69° E 17:59:43 10° NNE
Cosmos 1733 Rocket 3.0 17:51:54 10° N 17:56:19 65° E 18:00:43 10° SSE
Cosmos 1741 Rocket 4.1 17:52:37 10° SSW 17:57:57 83° WNW 18:03:19 10° NNE
Cosmos 841 Rocket 4.1 17:53:12 10° N 17:58:01 34° ENE 18:02:48 10° SE
SPOT 3 Rocket 4.1 17:54:15 10° SE 17:58:58 36° ENE 18:03:42 10° N
Cosmos 332 Rocket 4.3 17:54:09 10° NNW 17:58:59 67° WSW 18:03:48 10° S
CZ-2C R/B 3.8 17:54:39 10° NNE 17:59:01 51° E 18:03:24 10° S
METEOR-M 4.2 17:58:59 10° SE 18:04:08 52° ENE 18:09:20 10° N
ERS-2 2.3 18:00:50 10° SE 18:04:23 48° ENE 18:07:56 10° N
Meteor 2-10 Rocket 3.7 17:59:24 10° SSW 18:04:34 77° WNW 18:10:00 10° N
MOS 1 4.4 17:59:17 10° SE 18:04:46 51° ENE 18:10:17 10° N
Cosmos 972 Rocket 3.8 18:00:19 10° NNW 18:05:20 78° ENE 18:10:13 10° SSE
CZ-2C R/B 4.5 18:01:51 10° SSW 18:06:16 32° W 18:10:49 10° NNW
Cosmos 1862 Rocket 3.6 18:02:19 10° S 18:06:39 59° E 18:11:03 10° NNE
Meteor 1-26 Rocket 4.3 18:02:06 10° S 18:07:31 52° E 18:12:53 10° NNE
Cosmos 1844 Rocket 2.6 18:01:58 10° SSW 18:07:37 81° ESE 18:13:16 10° NNE
Cosmos 1816 Rocket 4.4 18:02:57 10° N 18:09:06 79° E 18:15:15 10° SSE
BREEZE-M R/B 2.2 18:06:41 10° WNW 18:09:14 70° NNE 18:11:43 19° ESE
USA 234 3.6 18:05:26 15° ENE 18:10:46 49° SE 18:17:03 10° SSW
Cosmos 1725 Rocket 4.1 18:11:30 10° S 18:17:48 84° W 18:24:07 10° N
MTI 3.9 18:15:34 16° NNE 18:17:55 50° E 18:21:03 10° S
ALOS 2.6 18:15:33 10° SE 18:19:57 42° ENE 18:24:22 10° N
Cosmos 972 4.4 18:18:31 10° NNW 18:23:40 59° ENE 18:28:29 10° SSE
NOSS 3-2 (C) 4.4 18:20:00 10° WSW 18:25:51 46° NW 18:32:14 11° NNE
Tsikada Rocket 4.3 18:19:45 10° NNW 18:25:53 71° W 18:32:00 10° S
Cosmos 1844 3.7 18:21:31 10° SSW 18:27:17 87° ESE 18:33:06 10° NNE
Cosmos 1484 Rocket 4.5 18:26:07 10° SSW 18:29:39 35° W 18:33:16 10° NNW
SMAP 4.4 18:27:37 10° S 18:32:00 41° W 18:36:26 10° NNW
Cosmos 1833 Rocket 3.2 18:26:49 10° NNW 18:32:01 36° NE 18:34:16 26° E
Cosmos 2278 Rocket 2.4 18:28:56 10° S 18:34:23 51° ESE 18:37:50 22° NE
FENGYUN 3A 3.6 18:29:20 10° SSE 18:34:39 59° ENE 18:39:58 10° N
Cosmos 1782 Rocket 3.8 18:30:52 10° N 18:35:00 41° ENE 18:39:07 10° SSE
COSMO-SKYMED 1 2.4 18:33:19 10° NNE 18:37:40 71° ESE 18:42:00 10° S
Okean 1-7 3.7 18:33:58 10° SSE 18:37:25 33° ESE 18:37:25 33° ESE
Cosmos 1782 3.3 18:34:33 10° SSE 18:38:06 38° E 18:38:06 38° E
EO 1 Del DPAF 3.1 18:39:06 19° NNE 18:41:50 78° ESE 18:45:39 10° S
Meteor 1-28 Rocket 4.3 18:39:08 10° N 18:42:41 44° WNW 18:46:13 10° SW
Cosmos 2221 Rocket 4.5 18:38:47 10° SSE 18:41:39 30° ESE 18:41:39 30° ESE
Lacrosse 5 3.0 18:38:15 10° W 18:42:55 36° NNW 18:45:36 21° NNE
YAOGAN 1 3.3 18:38:43 10° S 18:42:57 54° W 18:47:14 10° NNW
Cosmos 2263 Rocket 4.5 18:39:24 10° W 18:43:09 18° NW 18:46:54 10° N
ERBS 2.5 18:43:28 10° NW 18:46:51 67° SW 18:47:47 43° SSE
Cosmos 1606 3.1 18:43:30 10° S 18:46:24 41° SE 18:46:24 41° SE
Meteor 1-25 Rocket 4.3 18:44:11 10° NNW 18:50:04 85° W 18:55:53 10° S
Meteor 2-6 Rocket 4.4 18:46:20 10° SSE 18:51:25 43° E 18:52:44 36° ENE
BREEZE-M DEB (TANK) 2.8 18:50:51 10° WNW 18:52:19 43° NW 18:52:19 43° NW
Cosmos 1437 4.4 18:53:05 10° SW 18:55:59 33° WNW 18:58:20 14° NNW
Cosmos 1633 2.8 18:53:22 10° N 18:56:21 55° N 18:56:21 55° N
Meteor 1-20 Rocket 4.3 18:54:02 10° NNW 18:59:39 77° W 19:05:08 10° S
CENTAUR R/B 3.0 18:56:43 10° SW 19:02:50 59° NW 19:07:40 21° NNE
Okean 2 Rocket 4.0 19:01:01 10° N 19:03:45 34° NNE 19:03:45 34° NNE
Cosmos 1703 Rocket 3.5 19:01:03 10° S 19:05:32 87° W 19:07:54 28° N
Cosmos 44 Rocket 4.2 19:01:49 10° NNW 19:05:21 33° NNE 19:05:21 33° NNE
FengYun 1-2 T 4.1 19:01:42 13° SSE 19:06:31 63° ENE 19:12:01 10° N
SL-27 R/B 4.0 19:04:00 10° NNW 19:05:32 25° NNW 19:05:32 25° NNW
Cosmos 1763 Rocket 4.3 19:03:01 10° NNW 19:08:04 50° WSW 19:13:01 10° S
Cosmos 1464 Rocket 3.8 19:05:34 10° S 19:11:38 72° E 19:17:46 10° NNE
Cosmos 2082 Rocket 2.1 19:06:02 10° NNW 19:11:44 68° ENE 19:12:59 52° ESE
Meteor 1-10 Rocket 4.1 19:09:22 10° S 19:14:59 73° E 19:18:02 29° NNE
COSMOS 2455 3.2 19:10:10 10° SW 19:16:06 62° NW 19:19:30 26° NNE
Cosmos 1503 Rocket 4.3 19:11:33 10° S 19:15:41 47° SSE 19:15:41 47° SSE
CZ-4C R/B 3.1 19:19:23 10° NNW 19:26:04 48° NE 19:26:31 48° NE
Meteor 2-20 4.2 19:21:04 10° N 19:27:11 75° E 19:29:08 45° SSE
Cosmos 836 Rocket 4.5 19:26:21 10° NNW 19:31:37 81° WSW 19:32:11 70° S
Meteor 1-11 Rocket 3.8 19:36:18 10° N 19:41:41 74° N 19:41:41 74° N
Cosmos 540 Rocket 3.9 19:40:59 10° NNW 19:46:05 59° WSW 19:46:27 57° SW
ATLAS 3B R/B 4.5 19:42:50 10° NW 19:47:29 18° N 19:49:24 16° N
USA 234 3.5 19:52:47 54° NNE 19:53:53 62° NNW 20:00:19 10° WSW
Cosmos 1833 Rocket 3.8 20:10:46 10° NW 20:15:58 39° WSW 20:16:02 39° WSW
Cosmos 2278 Rocket 3.8 20:13:48 10° WSW 20:18:44 30° NW 20:19:43 28° NNW
Lacrosse 5 4.2 20:23:02 10° NW 20:24:47 17° NW 20:24:47 17° NW
CENTAUR R/B 4.4 20:49:51 10° WNW 20:54:52 24° NNW 20:54:52 24° NNW
Cosmos 2082 Rocket 4.4 20:51:14 10° NW 20:54:54 20° W 20:54:54 20° W
CZ-4C R/B 4.2 21:07:56 10° NW 21:11:44 33° WNW 21:11:44 33° WNW
